GFSNE_250_spd_159.txt.gz
Wind_Speed
21 22 23 22 20 17 17 15 14 14 11 6 5 9 0 6 8 4 8 9 8 9 11 12 13 18 23 19 18 18 18 17 16 14 14 15 16 17
22 22 19 17 16 14 12 14 14 11 5 3 1 3 8 6 4 7 8 9 11 11 12 13 16 19 20 16 18 21 22 22 22 22 21 21 23 24
23 21 20 18 16 14 13 9 8 9 5 5 6 5 7 7 9 9 12 14 14 16 17 20 21 21 21 21 23 26 24 25 26 24 25 27 29 31
26 24 22 21 17 17 17 12 11 12 11 6 8 9 10 9 10 12 9 14 17 18 19 20 20 22 23 24 28 28 28 28 27 27 27 28 30 32
27 27 24 22 22 21 21 19 13 14 16 15 16 16 15 14 14 14 14 16 18 21 24 23 26 26 27 28 29 31 32 33 36 36 32 33 36 37
30 31 28 27 26 26 24 23 22 19 20 19 22 23 21 20 20 23 24 25 23 25 25 26 30 32 34 34 35 37 37 38 40 40 41 43 45 45
35 34 32 30 27 26 30 30 29 28 26 25 25 26 25 27 28 25 28 30 31 32 32 32 33 36 39 42 41 35 40 41 44 45 47 48 53 55
44 41 37 35 33 33 34 34 32 32 31 29 29 31 32 33 33 33 36 38 38 38 39 41 45 45 46 44 42 44 47 47 48 47 50 53 57 60
47 49 46 42 40 38 40 39 39 40 39 37 36 37 38 40 43 43 41 41 43 44 45 51 50 51 53 51 50 53 55 57 56 58 60 63 66 71
51 53 52 50 47 44 44 42 41 43 43 42 42 41 41 46 48 51 52 52 51 53 51 47 47 51 54 56 59 60 59 61 64 66 67 70 75 78
50 53 55 54 52 46 48 49 46 46 46 43 42 46 45 46 52 51 50 54 51 48 48 51 54 57 59 61 63 64 66 69 73 72 75 78 82 83
45 50 57 59 55 55 56 52 52 53 51 49 51 52 51 48 51 51 48 51 53 56 57 60 62 68 71 73 73 72 78 76 79 81 83 82 84 91
44 47 48 52 58 59 59 56 57 56 55 54 52 53 51 55 58 60 61 61 65 68 71 73 75 76 73 72 79 82 82 83 83 85 89 94 98 99
51 52 52 52 54 55 58 61 61 60 62 58 60 60 58 60 61 63 65 66 70 71 73 73 75 72 79 84 82 84 83 88 90 96 101 102 106 110
53 57 56 58 59 60 61 62 66 69 68 69 72 72 73 73 72 72 74 75 77 78 75 73 76 79 83 85 89 92 95 99 107 110 113 115 114 115
54 57 61 62 63 66 66 68 71 73 74 76 77 77 80 80 75 76 73 69 72 75 79 84 86 87 89 92 97 101 104 109 113 116 112 113 111 121
64 64 64 62 50 72 74 76 76 78 81 81 81 81 83 82 82 82 83 85 84 87 91 94 97 98 103 107 111 114 115 115 116 119 123 127 130 133
69 69 68 67 71 77 76 79 83 85 85 87 87 87 87 90 89 91 93 94 97 100 101 105 108 110 111 114 117 119 119 122 125 129 133 135 137 140
78 77 77 77 78 79 81 81 82 83 83 85 86 87 89 90 90 93 94 94 99 105 109 111 114 116 118 118 120 124 129 129 134 137 138 139 141 138
79 77 79 79 72 83 87 87 85 83 85 88 90 91 92 93 92 90 93 101 107 112 114 115 115 116 120 123 128 132 133 132 134 137 140 137 138 138
80 82 81 75 78 84 83 89 91 90 92 92 93 94 96 97 97 99 102 106 107 112 117 118 120 125 127 129 128 131 134 136 138 135 130 130 126 127
89 90 91 87 87 91 100 98 98 100 100 99 101 101 102 104 103 104 106 110 112 117 121 121 119 124 125 127 129 127 130 121 123 125 122 123 124 121
98 96 95 95 97 98 100 100 101 103 106 105 105 102 105 106 105 105 109 113 117 122 123 124 125 121 122 116 115 114 115 113 117 118 118 115 112 114

GFSNE_250_spd_162.txt.gz
Wind_Speed
21 18 16 16 17 18 15 14 14 10 10 16 4 3 5 2 1 1 3 5 7 7 8 10 11 14 14 12 10 11 14 16 15 15 16 17 19 22
23 21 18 18 17 15 12 10 7 7 4 2 4 6 10 6 7 8 7 8 7 8 12 14 15 16 15 16 16 16 19 21 20 22 22 23 23 24
22 22 22 23 19 16 14 11 9 10 7 5 7 8 7 9 13 11 9 8 5 8 12 16 20 19 19 18 17 19 20 21 22 25 26 27 30 32
26 25 23 21 20 20 19 19 16 15 13 10 8 8 10 13 15 14 12 11 13 16 18 20 23 22 25 26 26 27 28 29 30 31 31 33 36 37
29 27 26 25 25 24 24 23 19 18 18 16 16 16 17 19 17 18 17 16 18 19 21 23 24 25 27 29 30 31 33 34 34 29 33 37 38 41
33 34 31 30 29 28 27 27 27 25 22 22 24 22 23 24 23 20 26 28 28 27 28 28 30 31 32 33 36 39 40 40 38 37 40 44 44 45
36 37 36 34 34 33 31 33 33 32 30 31 30 31 29 27 27 29 32 32 33 35 38 38 38 40 41 43 46 48 47 46 45 45 48 49 51 53
40 42 41 39 39 40 36 33 32 37 38 37 37 36 35 33 33 36 38 39 39 41 43 45 46 46 48 49 52 49 49 50 52 53 57 60 63 61
43 47 47 46 44 43 42 39 39 40 40 41 43 43 44 43 43 44 42 42 45 45 45 51 53 54 54 56 55 56 55 59 60 62 67 70 70 67
40 47 51 51 51 50 51 49 47 47 47 47 49 49 50 50 50 49 47 48 50 51 53 51 52 49 51 53 55 60 62 65 68 71 73 73 72 76
39 42 45 51 54 54 55 54 56 57 57 55 55 55 55 54 53 52 53 55 55 56 57 60 56 56 59 63 66 69 73 74 77 76 78 76 78 85
38 38 45 47 48 51 52 56 58 59 60 59 59 58 58 60 60 61 61 62 65 65 65 65 65 69 70 72 74 74 75 78 83 82 81 83 85 86
41 40 40 40 44 49 51 52 53 58 62 64 65 66 66 67 66 66 65 65 68 70 68 69 74 77 81 80 81 83 79 81 84 85 88 92 97 101
40 40 42 45 49 51 53 54 54 55 56 57 62 63 64 68 69 69 70 73 73 73 76 82 87 88 87 87 82 87 90 93 95 99 104 105 109 112
44 47 44 47 52 56 58 57 59 61 62 64 67 66 68 69 71 73 76 79 81 83 85 86 86 87 89 92 95 98 102 104 104 105 108 111 115 117
55 55 54 54 58 59 61 63 64 64 67 67 73 74 74 75 77 77 78 80 82 84 86 88 90 93 95 98 98 100 101 101 107 113 116 119 121 125
63 65 66 65 62 63 64 65 66 67 66 69 73 73 76 73 78 84 86 89 90 90 91 92 93 95 96 98 97 95 101 108 113 118 122 123 126 130
72 73 74 71 70 71 71 72 74 74 75 79 84 86 86 86 88 88 89 91 94 94 93 93 96 97 98 100 103 104 109 115 118 121 125 128 130 132
83 82 80 80 80 80 79 81 80 82 81 83 88 91 94 92 93 95 94 91 90 93 96 100 100 101 104 108 111 113 115 119 120 124 127 131 136 131
89 90 88 86 87 86 86 85 89 90 90 92 94 95 97 96 96 96 92 92 97 102 105 107 108 109 111 111 113 114 117 123 128 133 130 121 118 118
90 90 90 89 89 88 87 90 87 89 90 82 89 91 94 92 91 97 102 105 109 114 110 112 111 111 111 112 122 127 126 118 118 119 112 113 117 120
99 99 98 97 95 94 94 93 90 88 92 83 93 103 102 100 101 103 107 110 113 114 115 113 115 121 124 128 126 120 113 110 107 111 113 117 114 109
98 96 97 96 95 94 97 96 95 95 97 95 101 106 110 105 105 108 109 112 115 113 115 118 119 111 111 104 103 104 106 109 111 114 110 106 105 108

GFSNE_250_spd_168.txt.gz
Wind_Speed
16 15 18 17 13 11 14 13 13 13 13 10 9 9 6 3 6 5 5 8 5 4 5 5 7 8 9 10 10 10 12 14 18 21 21 21 22 25
17 13 16 18 15 10 11 14 12 14 12 2 3 4 5 7 8 8 6 8 7 5 5 9 11 11 12 13 14 17 19 20 21 23 23 24 28 30
19 16 16 19 16 13 14 16 13 11 14 3 8 9 5 6 7 8 9 12 11 12 13 16 18 18 20 22 20 20 22 25 27 28 31 36 39 39
26 20 18 18 17 16 18 21 20 17 14 10 9 10 12 11 12 13 14 18 17 19 21 22 26 25 27 30 30 31 33 33 34 36 39 43 44 46
27 28 26 24 21 21 22 25 23 20 17 16 18 14 14 13 14 17 17 19 19 21 25 28 28 30 32 33 33 34 37 39 41 43 46 47 49 50
28 28 28 27 22 24 21 23 23 24 24 23 21 20 19 20 22 23 24 24 28 28 28 29 32 35 37 38 41 43 44 44 45 47 50 53 53 53
25 29 28 29 26 25 25 25 26 27 27 26 28 29 29 28 29 31 33 35 32 33 33 34 38 40 43 45 47 48 49 49 49 53 60 57 57 59
22 25 28 30 30 31 33 34 31 30 33 36 36 35 34 35 33 32 34 36 37 39 39 41 43 45 46 48 49 50 52 54 58 62 60 61 64 67
23 24 28 33 37 38 36 36 36 35 38 39 40 38 37 39 42 42 44 47 47 47 48 51 53 52 52 53 53 55 58 61 63 64 66 68 70 74
25 25 23 28 34 38 38 38 38 40 41 43 46 47 48 50 51 52 54 54 54 54 56 57 57 58 59 61 61 61 61 61 62 65 69 71 72 73
27 26 23 22 27 33 35 35 36 38 41 40 42 43 43 46 49 53 55 55 55 55 53 51 52 54 57 57 58 59 62 64 66 68 70 73 75 80
31 31 36 39 36 30 24 26 32 32 35 32 31 31 36 42 45 45 47 46 47 49 51 54 57 60 61 62 63 66 68 68 70 73 76 81 86 91
38 38 39 32 32 30 33 33 32 33 33 36 37 42 44 50 54 52 52 55 57 57 63 64 65 68 70 69 71 72 74 76 79 82 85 89 93 96
47 42 45 44 38 35 36 38 40 38 33 39 38 41 44 52 61 65 63 64 67 68 71 72 74 74 75 78 79 81 84 85 88 90 92 96 99 103
53 53 54 48 41 40 42 44 44 41 41 35 43 56 57 63 65 66 71 73 72 71 76 81 81 80 82 83 85 89 91 92 96 96 99 104 103 103
50 54 58 53 52 51 47 45 45 41 42 37 53 51 50 47 60 65 68 64 65 70 74 79 81 76 79 85 95 96 98 102 105 103 105 107 106 104
58 56 58 56 58 57 58 55 51 46 46 51 53 67 63 66 70 59 69 69 76 84 88 84 74 84 91 98 99 99 103 104 102 104 106 110 106 106
66 71 69 69 69 66 66 69 68 67 64 63 63 73 73 76 76 76 75 85 88 97 97 96 90 91 95 101 103 105 108 106 103 106 106 104 104 107
80 79 79 77 75 76 77 76 77 77 78 79 82 83 79 83 81 86 89 97 100 99 97 97 99 98 97 100 105 107 110 103 99 98 104 100 99 103
86 88 86 87 86 87 88 88 87 87 89 89 87 86 83 83 85 85 87 81 87 98 102 103 102 103 95 96 94 99 104 94 92 99 102 109 114 122
95 90 90 94 93 97 100 97 94 94 96 97 97 92 98 91 94 93 92 87 88 93 91 98 97 100 101 101 96 97 102 104 109 113 114 120 124 117
107 104 102 101 98 96 95 95 97 98 99 105 102 101 100 98 94 94 93 94 97 102 97 104 105 110 106 101 99 103 111 112 110 114 111 106 103 105
92 99 103 107 107 104 101 97 94 94 94 95 96 95 94 90 88 90 89 88 94 105 110 101 99 93 93 94 97 100 105 110 106 102 99 100 97 99

GFSNE_250_spd_171.txt.gz
Wind_Speed
23 22 20 16 17 19 18 17 13 10 11 12 6 8 7 5 5 4 8 7 4 2 3 4 5 6 7 8 9 9 11 11 12 15 17 18 19 22
25 21 21 19 12 18 14 12 12 9 3 3 2 2 1 1 1 2 2 2 2 3 5 9 12 12 14 14 14 16 17 17 21 22 23 24 26 29
24 21 21 21 18 12 12 15 12 13 11 7 9 9 9 5 4 4 4 5 8 11 11 15 18 19 18 22 23 25 24 25 26 28 31 32 34 36
27 22 19 20 20 17 12 15 17 19 17 18 11 11 16 13 11 12 13 13 16 16 15 15 20 25 26 27 29 31 33 33 33 35 39 40 40 41
29 26 23 22 21 21 19 18 20 20 21 20 19 16 16 18 16 13 15 18 19 19 21 24 24 24 26 29 33 35 36 38 40 43 43 44 45 46
31 29 29 26 26 26 25 22 23 25 28 27 24 23 24 23 21 22 24 26 27 28 28 30 30 31 32 34 37 38 39 41 44 46 47 49 50 53
34 32 31 32 31 30 28 26 26 28 28 30 31 31 29 29 30 30 31 30 31 31 32 32 34 38 40 41 43 46 47 48 49 50 52 55 58 60
35 33 32 33 34 34 34 31 29 30 30 32 32 32 32 35 36 35 35 37 34 36 38 41 45 47 49 50 51 53 53 55 55 57 58 59 57 56
35 33 33 33 33 34 35 37 37 37 38 38 40 38 37 37 38 38 38 41 44 46 48 50 50 50 50 51 49 46 47 50 53 55 56 56 60 65
35 31 29 28 28 31 34 38 40 43 44 44 45 44 46 44 43 44 44 46 49 49 46 44 42 42 44 44 45 50 53 56 60 62 63 64 66 69
36 33 32 29 27 25 25 32 34 37 37 39 40 41 40 39 31 33 36 38 41 43 43 42 45 48 51 51 54 56 57 60 66 70 71 71 74 78
39 39 34 32 32 30 32 36 36 30 28 29 36 36 32 30 38 40 39 42 47 47 51 50 50 52 60 63 65 63 63 67 72 76 78 80 84 87
46 43 42 39 38 41 41 34 31 33 33 34 35 35 37 39 41 40 36 46 50 57 58 61 62 60 64 66 68 67 68 72 75 78 84 86 88 90
45 45 47 44 43 46 43 43 40 38 39 39 40 40 41 39 38 42 47 52 59 56 58 61 64 67 72 69 67 68 72 74 76 77 80 84 87 93
52 53 53 53 51 49 50 50 50 49 49 49 44 44 47 48 47 47 51 57 63 67 56 52 65 70 72 70 71 70 80 80 78 85 85 91 96 103
59 58 57 59 56 53 53 56 57 53 48 49 50 48 50 53 49 45 51 57 62 58 61 68 70 72 73 72 76 87 92 98 96 97 97 103 104 105
65 62 59 57 61 58 61 55 58 62 56 53 52 57 57 56 58 60 58 67 71 72 78 79 78 82 82 83 87 98 96 102 106 106 109 110 111 111
70 70 65 65 63 63 66 66 63 64 63 61 61 62 64 68 71 69 73 80 81 83 86 87 89 91 94 98 102 104 101 105 108 107 109 112 114 107
71 71 72 73 73 73 72 72 77 76 78 76 74 73 74 77 80 79 83 87 90 88 91 95 96 101 102 104 105 106 108 107 110 114 113 109 105 107
82 83 82 81 80 80 83 85 82 80 85 88 87 85 87 89 90 91 96 95 96 98 98 99 102 102 107 108 109 110 106 107 109 107 107 105 111 111
93 91 94 95 92 92 92 93 92 90 91 92 93 95 93 95 95 99 101 102 102 103 104 106 104 105 107 107 108 106 109 108 111 114 118 118 118 115
97 100 100 102 102 102 104 104 102 104 106 105 104 102 101 101 102 102 104 105 107 105 105 108 104 102 101 102 100 97 101 105 107 111 111 108 103 103
93 96 98 101 104 107 109 111 114 115 115 114 115 113 113 111 109 108 106 104 104 104 98 98 96 96 95 95 93 93 95 95 98 100 100 100 99 101